Regional Weather Roundup
Issued by NWS Charleston, SC

Current Version | Previous Version | Text Only | Print | Product List | Glossary Off
Versions: 1 2 3 4 5 6 7 8 9 10 11 12 13 14 15 16 17 18 19 20 21 22 23 24 25 26 27 28 29 30 31 32 33 34 35 36 37 38 39 40 41 42 43 44 45 46 47 48 49 50

554
ASUS42 KCHS 211912
RWRCHS

Regional Weather Roundup
National Weather Service Charleston SC
300 PM EDT SAT APR 21 2018

NOTE: "fair" indicates few or no clouds below 12,000 feet with no
significant weather and/or obstructions to visibility.

Not all stations are quality controlled. Use data with caution,
especially dewpoint observations.

SCZ027-030-031-034>040-042>050-212000-
...Southeast South Carolina...

CITY           SKY/WX    TMP DP  RH WIND       PRES   REMARKS
N Charleston   FAIR      72  49  44 E17       30.34S
Waterfront Prk NOT AVBL
Mount Pleasant FAIR      66  50  55 E6        30.35S
Johns Island   MOCLDY    68  50  52 E17G26    30.34S
Pinopolis        N/A     68  48  49 E9        30.26S
Moncks Corner  FAIR      70  43  37 E6        30.32F
Summerville    MOCLDY    72  48  43 SE5       30.33F
Beaufort MCAS  CLOUDY    69  53  56 E12G20    30.32F
Beaufort Arpt  MOCLDY    68  52  56 E17       30.32F
Hilton Head Is MOSUNNY   66  54  63 E13G22    30.33F
Walterboro     CLOUDY    70  50  49 E9G18     30.33F
Allendale      MOCLDY    72  50  46 SE10      30.30F

...Southern Midlands and Pee Dee...

CITY           SKY/WX    TMP DP  RH WIND       PRES   REMARKS
Georgetown     FAIR      66  43  42 E17       30.37F
Kingstree      FAIR      70  39  32 NE3       30.33F
Orangeburg     PTSUNNY   70  43  37 E8        30.32F
Barnwell       FAIR      72  41  33 SE6G13    30.31F
Aiken          FAIR      70  32  24 NE9       30.35F
Manning        FAIR      68  39  34 S8        30.33F
Columbia       FAIR      72  35  25 VRB7      30.32F
Sumter         FAIR      72  31  22 CALM      30.31F
Florence       FAIR      70  28  21 SE8       30.35F
Myrtle Beach   FAIR      65  47  52 E16       30.38F
N Myrtle Beach FAIR      65  46  50 E13G21    30.36F

$$

GAZ063-065-086>088-099>101-113>116-118-119-134>141-150-212000-
...Southeast Georgia...

CITY           SKY/WX    TMP DP  RH WIND       PRES   REMARKS
Savannah Arpt  PTSUNNY   72  54  53 E13       30.31S
Hunter AAF     CLOUDY    69  53  57 E17G26    30.28F
Fort Stewart   CLOUDY    70  55  57 E13G20    30.28S
Statesboro     CLOUDY    73  49  42 SE8       30.29F
Sylvania       CLOUDY    72  57  60 SE8       30.31F
Claxton        MOCLDY    74  56  54 NE15      30.29F

...CSRA, Central and far Southeast Georgia...

CITY           SKY/WX    TMP DP  RH WIND       PRES   REMARKS
Thomson        FAIR      71  35  26 SE8       30.36F
Augusta-Bush   FAIR      74  35  24 E10       30.30F
Augusta-Daniel FAIR      73  29  19 E7        30.31F
Swainsboro     CLOUDY    72  48  43 SE7G17    30.30F
Vidalia        CLOUDY    72  55  56 E10       30.28F
Eastman        CLOUDY    73  36  25 E9        30.30S
Hazlehurst     CLOUDY    72  53  51 SE6       30.27S
Alma           LGT RAIN  64  60  87 E6        30.27F FOG
Waycross       CLOUDY    68  60  77 E12       30.27S
Jesup          NOT AVBL
Baxley         CLOUDY    66  57  72 SE7       30.28R
Brunswick      CLOUDY    63  59  88 NE7       30.28F
Saint Simons   CLOUDY    67  62  84 NE9       30.26S

$$

SCZ027-028-034-036>038-045-046-048>050-GAZ119-141-212000-
...Lake and Supplemental Coastal Observations...

STATION/POSITION TIME  TEMP    WIND        PRES    WAVE   SWELL
                       AIR SEA DIR/SP/G            HT/PER HT/PER/DIR
                 (UTC) (F)     (DEG/KT/KT) (MB)    (FT/S) (FT/S/D)
Winyah Bay       1745   61      70/ 16     1029.0
Lake Murray      1820   66     100/  5/  8 1026.8F
ACE Basin NERRS  1745   70     350/  6       N/A
Fort Pulaski     1848   64 64   70/ 19/ 25 1026.6F
Sapelo Island    1800   64      50/  9     1025.0

$$

ANZ835-935-AMZ111-154-330-350-352-354-370-450-454-472-212000-
...C-MAN and Buoy Observations...

STATION/POSITION TIME  TEMP    WIND        PRES    WAVE   SWELL
                       AIR SEA DIR/SP/G            HT/PER HT/PER/DIR
                 (UTC) (F)     (DEG/KT/KT) (MB)    (FT/S) (FT/S/D)
Buoy 41004       1850   66 67   80/ 16/ 19 1026.8F   5/ 5   2/110/ 9
Buoy 41008       1850   66 65   80/ 14/ 16 1024.7F   5/ 8   3/110/ 8
Folly Beach CMAN 1800   63      60/ 20/ 22 1028.3F
Capers Nearshore 1808   62 63   60/ 19/ 25 1027.7F
Fripp Nearshore  1808   63 63   60/ 17/ 25 1026.4S


STATION/POSITION TIME  TEMP    WIND        PRES    WAVE   SWELL
                       AIR SEA DIR/SP/G            HT/PER HT/PER/DIR
                 (UTC) (F)     (DEG/KT/KT) (MB)    (FT/S) (FT/S/D)
5E St. Marys GA  1900      66                N/A     5/ 6   2/ 70/11
Frying Pan Buoy  1850   62 67   50/ 16/ 19 1028.1F   4/ 5   2/ 90/ 8
Buoy 41025       1850   55 71   20/ 14/ 17 1029.9F   4/ 8   3/ 60/ 8
Cape Lookout NC  1800           60/ 14/ 16 1030.1F
Buoy 41002       1850   65 73   40/ 12/ 17 1026.6F   4/ 7   3/ 30/ 7
Buoy 41010       1850   72 76   70/ 21/ 25 1023.1F   9/ 8   2/100/15
St Augustine FL  1900   70 67  100/ 15/ 17 1023.3F


$$




USA.gov is the U.S. government's official web portal to all federal, state and local government web resources and services.